{"data":{"norad_id":63926,"intl_designator":"2025-098A","name":"STARLINK-34012","alt_names":[],"object_type":"PAYLOAD","status":"ACTIVE","operator":null,"country":"US","launch_date":"2025-05-13","launch_site_code":"AFWTR","launch_vehicle":null,"mission":null,"orbit_class":"UNKNOWN","rcs_meters":null,"size_class":null,"mass_kg":null,"dimensions":null,"purposes":["comms"],"wikipedia_slug":null,"has_3d_model":false,"image_url":null,"decayed_at":null,"tle_current":{"epoch":"2026-09-20T22:47:57.918624Z","epoch_age_seconds":108251,"freshness":"FRESH","line1":"1 63926U 25098A   26263.94997591  .00009095  00000+0  32037-3 0  9992","line2":"2 63926  69.9955 139.6235 0004525 280.5689  79.4976 15.29585350 75900","mean_motion":15.2958535,"eccentricity":0.0004525,"inclination_deg":69.9955,"raan_deg":139.6235,"arg_perigee_deg":280.5689,"mean_anomaly_deg":79.4976,"bstar":0.00032037,"rev_number":7590,"period_min":94.143161086107,"perigee_km":473.94894552772,"apogee_km":480.15289059356,"semimajor_km":6855.1879180606,"source":"CELESTRAK","updated_at":"2026-09-21T09:00:35.148757Z"}}}